DW9063 Weather Reports


time (UTC)temp
C
wind
direction
speed
KPH
gust
KPH
rain 1hr
cm
rain 24hr
cm
rain mn
cm
humidity
%
barometer
mb
20260507134526 11 340 1.6 4.8 0.08 0.08 0.08 68 1012.8
20260507133025 11 30 0.0 1.6 0.05 0.05 0.05 68 1012.6
20260507131527 10 30 0.0 1.6 0.00 0.00 0.00 72 1012.5
20260507130024 9 30 0.0 3.2 0.00 0.00 0.00 74 1012.4
20260507124519 8 30 0.0 3.2 0.00 0.00 0.00 75 1012.3
20260507123016 9 30 0.0 3.2 0.00 0.00 0.00 75 1012.1
20260507121513 9 30 0.0 3.2 0.00 0.00 0.00 74 1011.7
20260507120013 9 30 0.0 3.2 0.00 0.00 0.00 73 1011.5
20260507114510 9 30 0.0 1.6 0.00 0.00 0.00 74 1011.3
20260507113005 10 341 1.6 4.8 0.00 0.00 0.00 73 1011.3
20260507110025 10 317 1.6 4.8 0.00 0.00 0.00 69 1011.0
20260507104607 11 255 0.0 1.6 0.00 0.00 0.00 67 1010.7
20260507103010 11 255 0.0 3.2 0.00 0.00 0.00 65 1010.6
20260507101542 11 254 1.6 3.2 0.00 0.00 0.00 64 1010.5
20260507101503 11 254 1.6 3.2 0.00 0.00 0.00 64 1010.5
20260507100009 11 254 0.0 0.0 0.00 0.00 0.00 63 1010.4
20260507094541 12 254 0.0 1.6 0.00 0.00 0.00 61 1010.1
20260507093018 12 254 0.0 1.6 0.00 0.00 0.00 61 1010.2
20260507091515 12 254 0.0 3.2 0.00 0.00 0.00 62 1009.9
20260507090008 13 254 0.0 3.2 0.00 0.00 0.00 60 1009.8
20260507084509 13 7 0.0 3.2 0.00 0.00 0.00 60 1009.7
20260507083005 13 7 0.0 0.0 0.00 0.00 0.00 61 1009.4
20260507081504 13 7 0.0 4.8 0.00 0.00 0.00 61 1009.3
20260507080100 13 204 0.0 4.8 0.00 0.00 0.00 61 1009.1
20260507080001 13 204 0.0 4.8 0.00 0.00 0.00 61 1009.1
20260507074613 13 264 0.0 1.6 0.00 0.00 0.00 58 1009.0
20260507073101 14 329 0.0 3.2 0.00 0.00 0.00 60 1008.8
20260507071552 15 48 0.0 3.2 0.00 0.00 0.00 62 1008.6
20260507070050 15 48 0.0 3.2 0.00 0.00 0.00 63 1008.5
20260507064547 16 49 0.0 3.2 0.00 0.00 0.00 61 1008.4
20260507063056 15 269 0.0 4.8 0.00 0.00 0.00 62 1008.4
20260507061606 16 78 0.0 3.2 0.00 0.00 0.00 60 1008.2
20260507054548 17 245 0.0 3.2 0.00 0.00 0.00 51 1008.2
20260507053041 18 276 0.0 3.2 0.00 0.00 0.00 45 1008.1
20260507051523 18 289 0.0 9.7 0.00 0.00 0.00 43 1008.1
20260507050033 20 257 0.0 9.7 0.00 0.00 0.00 42 1008.1
20260507044532 20 140 3.2 22.5 0.00 0.00 0.00 41 1008.1
20260507043021 20 175 4.8 14.5 0.00 0.00 0.00 41 1008.1
20260507041528 21 238 6.4 16.1 0.00 0.00 0.00 39 1008.0
20260507040019 21 221 11.3 20.9 0.00 0.00 0.00 38 1007.8
20260507034518 21 217 4.8 17.7 0.00 0.00 0.00 42 1007.8
20260507033018 21 58 3.2 16.1 0.00 0.00 0.00 43 1007.6
20260507031524 21 226 8.0 16.1 0.00 0.00 0.00 43 1007.8
20260507030016 22 167 1.6 20.9 0.00 0.00 0.00 45 1007.9
20260507024515 22 209 8.0 19.3 0.00 0.00 0.00 45 1007.9
20260507023013 22 189 4.8 9.7 0.00 0.00 0.00 42 1008.0
20260507021512 22 167 4.8 12.9 0.00 0.00 0.00 41 1008.1
20260507020011 23 232 6.4 14.5 0.00 0.00 0.00 39 1008.2
20260507014515 23 172 4.8 14.5 0.00 0.00 0.00 39 1008.3
20260507013009 23 161 8.0 17.7 0.00 0.00 0.00 38 1008.5
20260507011509 23 187 8.0 19.3 0.00 0.00 0.00 38 1008.6
20260507010004 23 226 8.0 22.5 0.00 0.00 0.00 37 1008.6
20260507004508 23 227 9.7 20.9 0.00 0.00 0.00 37 1008.7
20260507003002 23 241 11.3 24.1 0.00 0.00 0.00 37 1008.7
20260507001534 24 191 8.0 17.7 0.00 0.00 0.00 36 1008.8
20260507000059 24 224 6.4 17.7 0.00 0.00 0.00 35 1008.7
20260506234538 24 233 11.3 22.5 0.00 0.00 0.00 36 1008.9
20260506233036 25 250 6.4 19.3 0.00 0.00 0.00 36 1009.0
20260506231533 25 248 6.4 29.0 0.00 0.00 0.00 39 1009.1
20260506230018 24 213 11.3 19.3 0.00 0.00 0.00 39 1009.2
20260506224520 25 223 9.7 22.5 0.00 0.00 0.00 41 1009.5
20260506223020 25 225 12.9 20.9 0.00 0.00 0.00 40 1009.7
20260506221514 25 188 9.7 19.3 0.00 0.00 0.00 39 1009.8
20260506220012 25 201 4.8 22.5 0.00 0.00 0.00 41 1009.9
20260506214510 25 156 6.4 20.9 0.00 0.00 0.00 40 1010.1
20260506213008 25 187 9.7 24.1 0.00 0.00 0.00 39 1010.2
20260506211513 24 302 3.2 19.3 0.00 0.00 0.00 42 1010.4
20260506210007 24 245 8.0 20.9 0.00 0.00 0.00 40 1010.6
20260506204505 24 245 6.4 17.7 0.00 0.00 0.00 40 1010.7
20260506203001 25 286 4.8 22.5 0.00 0.00 0.00 42 1010.9
20260506201609 24 278 1.6 11.3 0.00 0.00 0.00 40 1010.9
20260506200100 24 164 1.6 12.9 0.00 0.00 0.00 38 1011.2
20260506194609 22 77 1.6 6.4 0.00 0.00 0.00 42 1011.3
20260506193053 21 353 1.6 6.4 0.00 0.00 0.00 41 1011.6
20260506191545 21 100 1.6 6.4 0.00 0.00 0.00 40 1012.0
20260506190011 20 81 1.6 6.4 0.00 0.00 0.00 41 1012.2
20260506184513 20 333 3.2 9.7 0.00 0.00 0.00 41 1012.3
20260506183006 19 71 1.6 8.0 0.00 0.00 0.00 40 1012.3
20260506181508 19 303 3.2 6.4 0.00 0.00 0.00 40 1012.2
20260506180008 19 61 1.6 8.0 0.00 0.00 0.00 41 1012.4
20260506174508 18 16 3.2 8.0 0.00 0.00 0.00 41 1012.5
20260506173002 18 158 1.6 8.0 0.00 0.00 0.00 39 1012.7
20260506171558 17 92 3.2 8.0 0.00 0.00 0.00 42 1012.8
20260506170112 17 11 3.2 11.3 0.00 0.00 0.00 44 1013.0
20260506164554 16 56 8.0 14.5 0.00 0.00 0.00 44 1013.0
20260506163101 16 56 4.8 16.1 0.00 0.00 0.00 46 1013.2
20260506161546 15 125 8.0 14.5 0.00 0.00 0.00 46 1013.2
20260506160043 15 61 6.4 14.5 0.00 0.00 0.00 47 1013.3
20260506154541 14 75 6.4 14.5 0.00 0.00 0.00 50 1013.3
20260506153035 13 51 4.8 14.5 0.00 0.00 0.00 53 1013.4
20260506151533 12 46 8.0 12.9 0.00 0.00 0.00 54 1013.4
20260506150028 12 8 8.0 14.5 0.00 0.00 0.00 55 1013.4
20260506144525 11 60 8.0 16.1 0.00 0.00 0.00 55 1013.3
20260506143031 11 69 8.0 14.5 0.00 0.00 0.00 55 1013.3
20260506141523 11 65 8.0 16.1 0.00 0.00 0.00 58 1013.4
20260506140023 11 70 6.4 16.1 0.00 0.00 0.00 60 1013.4